Location: ????????
(55.6333°N, 37.7000°E)
Time: 06:59:24
(UTC+00:00)

Okean 1 - Pass Details

Date: 19 May 2025
Orbit: 478 x 498 km, 82.5° (Epoch: 23 June)

Event Time Altitude Azimuth Distance (km) Brightness Sun altitude
Exits shadow 20:09:11 - 213° (SSW) 1,775 5.6 -12.7°
Reaches altitude 10° 20:09:25 10° 214° (SW) 1,683 5.4 -12.7°
Maximum altitude 20:12:57 44° 288° (WNW) 694 4.1 -12.8°
Drops below altitude 10° 20:16:30 10° 1° (N) 1,685 7.1 -13.0°
Sets 20:18:41 0° 9° (N) 2,567 8.0 -13.1°
